Ellensburg, WA

5:23 AM PDT on May 20, 2018 (GMT -0700)
Bowers

Weather History for KELN - May, 2013

Change the Weather History Date:

Wednesday, May 15, 2013

  Actual Average (KYKM) Record (KYKM)
Temperature  
Mean Temperature 56 °F -  
Max Temperature 70 °F 72 °F 94 °F (2012)
Min Temperature 42 °F 40 °F 32 °F (1986)
Degree Days  
Heating Degree Days 10    
Growing Degree Days 6 (Base 50)    
Moisture  
Dew Point 36 °F    
Average Humidity 48    
Maximum Humidity 70    
Minimum Humidity 29    
Precipitation  
Precipitation 0.00 in - - ()
Sea Level Pressure  
Sea Level Pressure 30.00 in    
Wind  
Wind Speed 7 mph (NW)    
Max Wind Speed 17 mph    
Max Gust Speed 23 mph    
Visibility 10 miles    
Events      
Averages and records for this station are not official NWS values.
T = Trace of Precipitation, MM = Missing Value Source: NWS Daily Summary

Daily Weather History Graph

Daily Weather History Graph

Search for Another Location

Airport or City:

Astronomy

May. 15, 2013 Rise Set
Actual Time 5:26 AM PDT 8:31 PM PDT
Civil Twilight 4:50 AM PDT 9:07 PM PDT
Nautical Twilight 4:03 AM PDT 9:54 PM PDT
Astronomical Twilight 3:06 AM PDT 10:52 PM PDT
Moon 10:10 AM PDT (5/15) 12:17 AM PDT (5/15)
Length of Visible Light 16h 17m
Length of Day
15h 05m
Waxing Crescent, 28% of the Moon is Illuminated
May 15
Waxing Crescent
May 17
First Quarter
May 24
Full
May 31
Last Quarter
Jun 8
New

Hourly Weather History & Observations

Time (PDT) Temp. Windchill Dew Point Humidity Pressure Visibility Wind Dir Wind Speed Gust Speed Precip Events Conditions
12:53 AM 48.9 °F - 33.1 °F 54% 30.07 in 10.0 mi NW 11.5 mph - N/A   Clear
1:53 AM 48.9 °F - 33.1 °F 54% 30.06 in 10.0 mi NW 5.8 mph - N/A   Clear
2:53 AM 48.0 °F - 32.0 °F 54% 30.06 in 10.0 mi NW 10.4 mph - N/A   Clear
3:53 AM 48.0 °F - 32.0 °F 54% 30.06 in 10.0 mi Calm Calm - N/A   Clear
4:53 AM 43.0 °F 41.3 °F 33.1 °F 68% 30.05 in 10.0 mi ESE 3.5 mph - N/A   Clear
5:53 AM 42.1 °F 40.2 °F 33.1 °F 70% 30.05 in 10.0 mi ENE 3.5 mph - N/A   Clear
6:53 AM 46.0 °F 44.8 °F 35.1 °F 66% 30.06 in 10.0 mi East 3.5 mph - N/A   Clear
7:53 AM 48.9 °F - 35.1 °F 59% 30.06 in 10.0 mi Calm Calm - N/A   Clear
8:53 AM 54.0 °F - 37.0 °F 53% 30.05 in 10.0 mi Calm Calm - N/A   Clear
9:53 AM 60.1 °F - 37.0 °F 42% 30.04 in 10.0 mi Variable 4.6 mph - N/A   Clear
10:53 AM 64.9 °F - 35.1 °F 33% 30.01 in 10.0 mi Calm Calm - N/A   Clear
11:53 AM 66.0 °F - 33.1 °F 29% 30.00 in 10.0 mi East 4.6 mph - N/A   Clear
12:53 PM 64.9 °F - 33.1 °F 31% 29.98 in 10.0 mi East 4.6 mph - N/A   Mostly Cloudy
1:53 PM 66.0 °F - 33.1 °F 29% 29.97 in 10.0 mi Calm Calm - N/A   Overcast
2:53 PM 69.1 °F - 35.1 °F 29% 29.96 in 10.0 mi SW 4.6 mph - N/A   Scattered Clouds
3:53 PM 68.0 °F - 36.0 °F 31% 29.95 in 10.0 mi WSW 5.8 mph - N/A   Overcast
4:53 PM 66.9 °F - 36.0 °F 32% 29.95 in 10.0 mi WNW 5.8 mph - N/A   Overcast
5:53 PM 64.9 °F - 37.0 °F 36% 29.94 in 10.0 mi SSE 6.9 mph - N/A   Overcast
6:53 PM 64.0 °F - 41.0 °F 43% 29.93 in 10.0 mi WNW 9.2 mph - N/A   Overcast
7:53 PM 59.0 °F - 41.0 °F 51% 29.93 in 10.0 mi NW 15.0 mph - N/A   Partly Cloudy
8:53 PM 57.0 °F - 42.1 °F 57% 29.94 in 10.0 mi NW 13.8 mph - N/A   Overcast
9:53 PM 55.0 °F - 41.0 °F 59% 29.94 in 10.0 mi NW 17.3 mph - N/A   Mostly Cloudy
10:53 PM 54.0 °F - 41.0 °F 62% 29.94 in 10.0 mi NW 17.3 mph 23.0 mph N/A   Overcast
11:53 PM 54.0 °F - 39.9 °F 59% 29.94 in 10.0 mi WNW 15.0 mph 21.9 mph N/A   Partly Cloudy